• In Hungary
  • List of Countries
  • For 7 days
  • Water Temperature
  • Satellite Maps
  • Weather Map
  • News
  • Weather Widgets
  • user-avatar
    Login

    Hourly Weather Eleykino

    Today, 26 September, Wednesday

    Time Temperature Precipitation Wind Pressure Humidity
    00:00 +3°C° 0 mm 4 mps 745 mmHg 77%
    01:00 +2°C° 0 mm 3 mps 746 mmHg 78%
    02:00 +2°C° 0 mm 3 mps 746 mmHg 79%
    03:00 +2°C° 0 mm 3 mps 747 mmHg 80%
    04:00 +1°C° 0 mm 3 mps 747 mmHg 81%
    05:00 +1°C° 0 mm 3 mps 747 mmHg 82%
    06:00 +2°C° 0 mm 3 mps 747 mmHg 81%
    07:00 +3°C° 0 mm 4 mps 748 mmHg 81%
    08:00 +4°C° 0 mm 4 mps 748 mmHg 80%
    09:00 +6°C° 0 mm 4 mps 748 mmHg 75%
    10:00 +7°C° 0 mm 4 mps 748 mmHg 70%
    11:00 +10°C° 0 mm 4 mps 747 mmHg 65%
    12:00 +9°C° 0 mm 5 mps 747 mmHg 62%
    13:00 +10°C° 0 mm 5 mps 746 mmHg 59%
    14:00 +10°C° 0 mm 5 mps 746 mmHg 56%
    15:00 +10°C° 0 mm 5 mps 745 mmHg 60%
    16:00 +9°C° 0 mm 5 mps 743 mmHg 63%
    17:00 +8°C° 0 mm 5 mps 742 mmHg 66%
    18:00 +7°C° 0.9 mm 6 mps 741 mmHg 72%
    19:00 +6°C° 0.9 mm 7 mps 740 mmHg 79%
    20:00 +5°C° 0.9 mm 8 mps 738 mmHg 85%
    21:00 +5°C° 1.8 mm 8 mps 737 mmHg 86%
    22:00 +5°C° 1.8 mm 8 mps 735 mmHg 87%
    23:00 +5°C° 1.8 mm 8 mps 734 mmHg 87%

    Tomorrow, 27 September, Thursday

    Time Temperature Precipitation Wind Pressure Humidity
    00:00 +5°C° 1.5 mm 7 mps 733 mmHg 88%
    01:00 +6°C° 1.5 mm 7 mps 732 mmHg 89%
    02:00 +7°C° 1.5 mm 6 mps 731 mmHg 90%
    03:00 +7°C° 0.6 mm 6 mps 731 mmHg 89%
    04:00 +6°C° 0.6 mm 5 mps 731 mmHg 87%
    05:00 +6°C° 0.6 mm 4 mps 731 mmHg 85%
    06:00 +6°C° 0 mm 5 mps 732 mmHg 83%
    07:00 +6°C° 0 mm 5 mps 732 mmHg 81%
    08:00 +5°C° 0 mm 6 mps 732 mmHg 79%
    09:00 +7°C° 0.3 mm 6 mps 732 mmHg 76%
    10:00 +6°C° 0.3 mm 7 mps 733 mmHg 73%
    11:00 +8°C° 0.3 mm 7 mps 733 mmHg 70%
    12:00 +8°C° 0.3 mm 7 mps 733 mmHg 69%
    13:00 +8°C° 0.3 mm 7 mps 733 mmHg 67%
    14:00 +8°C° 0.3 mm 7 mps 734 mmHg 66%
    15:00 +7°C° 0.1 mm 6 mps 734 mmHg 67%
    16:00 +7°C° 0.1 mm 6 mps 734 mmHg 68%
    17:00 +6°C° 0.1 mm 5 mps 735 mmHg 69%
    18:00 +6°C° 0 mm 5 mps 735 mmHg 71%
    19:00 +5°C° 0 mm 4 mps 735 mmHg 73%
    20:00 +4°C° 0 mm 4 mps 736 mmHg 74%
    21:00 +4°C° 0 mm 4 mps 736 mmHg 75%
    22:00 +4°C° 0 mm 4 mps 736 mmHg 75%
    23:00 +4°C° 0 mm 4 mps 736 mmHg 76%

    Day after tomorrow, 28 September, Friday

    Time Temperature Precipitation Wind Pressure Humidity
    00:00 +4°C° 0 mm 4 mps 736 mmHg 77%
    01:00 +4°C° 0 mm 3 mps 735 mmHg 78%
    02:00 +4°C° 0 mm 3 mps 735 mmHg 79%
    03:00 +4°C° 1.1 mm 3 mps 734 mmHg 84%
    04:00 +5°C° 1.1 mm 2 mps 733 mmHg 89%
    05:00 +4°C° 1.1 mm 2 mps 732 mmHg 94%
    06:00 +4°C° 1.1 mm 2 mps 731 mmHg 94%
    07:00 +4°C° 1.1 mm 2 mps 731 mmHg 95%
    08:00 +6°C° 1.1 mm 1 mps 730 mmHg 95%
    09:00 +5°C° 0.3 mm 2 mps 731 mmHg 92%
    10:00 +4°C° 0.3 mm 3 mps 732 mmHg 89%
    11:00 +5°C° 0.3 mm 3 mps 732 mmHg 86%
    12:00 +5°C° 0.1 mm 4 mps 733 mmHg 81%
    13:00 +6°C° 0.1 mm 4 mps 734 mmHg 76%
    14:00 +6°C° 0.1 mm 5 mps 735 mmHg 70%
    15:00 +5°C° 0.1 mm 4 mps 736 mmHg 72%
    16:00 +5°C° 0.1 mm 4 mps 737 mmHg 74%
    17:00 +4°C° 0.1 mm 3 mps 737 mmHg 75%
    18:00 +3°C° 0 mm 3 mps 738 mmHg 77%
    19:00 +3°C° 0 mm 3 mps 739 mmHg 79%
    20:00 +2°C° 0 mm 3 mps 739 mmHg 82%
    21:00 +1°C° 0 mm 3 mps 740 mmHg 82%
    22:00 +1°C° 0 mm 3 mps 740 mmHg 82%
    23:00 +1°C° 0 mm 3 mps 741 mmHg 82%

    29 September, Saturday

    Time Temperature Precipitation Wind Pressure Humidity
    00:00 0°C° 0 mm 3 mps 742 mmHg 81%
    01:00 0°C° 0 mm 3 mps 742 mmHg 81%
    02:00 0°C° 0 mm 3 mps 743 mmHg 81%
    03:00 0°C° 0 mm 3 mps 743 mmHg 81%
    04:00 -1°C° 0 mm 3 mps 744 mmHg 82%
    05:00 -1°C° 0 mm 3 mps 745 mmHg 82%
    06:00 0°C° 0 mm 3 mps 745 mmHg 77%
    07:00 0°C° 0 mm 4 mps 746 mmHg 72%
    08:00 +1°C° 0 mm 4 mps 746 mmHg 67%
    09:00 +1°C° 0 mm 4 mps 747 mmHg 63%
    10:00 +3°C° 0 mm 4 mps 748 mmHg 59%
    11:00 +4°C° 0 mm 4 mps 748 mmHg 55%
    12:00 +5°C° 0 mm 4 mps 749 mmHg 53%
    13:00 +5°C° 0 mm 4 mps 749 mmHg 52%
    14:00 +5°C° 0 mm 4 mps 749 mmHg 51%
    15:00 +4°C° 0 mm 3 mps 750 mmHg 55%
    16:00 +3°C° 0 mm 3 mps 750 mmHg 59%
    17:00 +3°C° 0 mm 2 mps 750 mmHg 63%
    18:00 +2°C° 0 mm 2 mps 751 mmHg 67%
    19:00 +1°C° 0 mm 2 mps 751 mmHg 71%
    20:00 +1°C° 0 mm 2 mps 751 mmHg 75%
    21:00 +1°C° 0 mm 2 mps 752 mmHg 75%
    22:00 +1°C° 0 mm 2 mps 752 mmHg 76%
    23:00 0°C° 0 mm 3 mps 752 mmHg 76%

    30 September, Sunday

    Time Temperature Precipitation Wind Pressure Humidity
    00:00 0°C° 0 mm 3 mps 752 mmHg 77%
    01:00 0°C° 0 mm 3 mps 752 mmHg 78%
    02:00 0°C° 0 mm 3 mps 752 mmHg 79%
    03:00 0°C° 0 mm 3 mps 752 mmHg 80%
    04:00 0°C° 0 mm 3 mps 751 mmHg 81%
    05:00 0°C° 0 mm 3 mps 751 mmHg 82%
    06:00 0°C° 0 mm 4 mps 751 mmHg 79%
    07:00 +1°C° 0 mm 4 mps 751 mmHg 75%
    08:00 +2°C° 0 mm 5 mps 751 mmHg 72%
    09:00 +5°C° 0 mm 5 mps 751 mmHg 67%
    10:00 +5°C° 0 mm 6 mps 750 mmHg 63%
    11:00 +7°C° 0 mm 6 mps 750 mmHg 58%
    12:00 +8°C° 0 mm 6 mps 750 mmHg 57%
    13:00 +8°C° 0 mm 6 mps 749 mmHg 56%
    14:00 +8°C° 0 mm 6 mps 749 mmHg 55%
    15:00 +8°C° 0 mm 5 mps 749 mmHg 58%
    16:00 +7°C° 0 mm 5 mps 748 mmHg 61%
    17:00 +6°C° 0 mm 4 mps 748 mmHg 63%
    18:00 +6°C° 0 mm 4 mps 748 mmHg 63%
    19:00 +5°C° 0 mm 4 mps 748 mmHg 63%
    20:00 +5°C° 0 mm 4 mps 748 mmHg 63%
    21:00 +5°C° 0 mm 4 mps 748 mmHg 65%
    22:00 +5°C° 0 mm 4 mps 747 mmHg 66%
    23:00 +5°C° 0 mm 4 mps 747 mmHg 67%

    1 October, Monday

    Time Temperature Precipitation Wind Pressure Humidity
    00:00 +5°C° 0 mm 4 mps 747 mmHg 70%
    01:00 +5°C° 0 mm 4 mps 747 mmHg 72%
    02:00 +4°C° 0 mm 4 mps 747 mmHg 74%
    03:00 +4°C° 0 mm 4 mps 746 mmHg 77%
    04:00 +4°C° 0 mm 4 mps 746 mmHg 79%
    05:00 +4°C° 0 mm 4 mps 746 mmHg 81%
    06:00 +4°C° 0 mm 4 mps 746 mmHg 80%
    07:00 +5°C° 0 mm 4 mps 746 mmHg 78%
    08:00 +6°C° 0 mm 4 mps 746 mmHg 77%
    09:00 +7°C° 0 mm 4 mps 746 mmHg 74%
    10:00 +8°C° 0 mm 4 mps 746 mmHg 71%
    11:00 +10°C° 0 mm 4 mps 746 mmHg 68%
    12:00 +11°C° 0 mm 4 mps 746 mmHg 67%
    13:00 +11°C° 0 mm 4 mps 746 mmHg 65%
    14:00 +12°C° 0 mm 4 mps 746 mmHg 64%
    15:00 +11°C° 0 mm 3 mps 746 mmHg 68%
    16:00 +10°C° 0 mm 3 mps 746 mmHg 73%
    17:00 +9°C° 0 mm 2 mps 746 mmHg 77%
    18:00 +8°C° 0 mm 2 mps 746 mmHg 79%
    19:00 +8°C° 0 mm 2 mps 746 mmHg 80%
    20:00 +7°C° 0 mm 2 mps 746 mmHg 82%
    21:00 +7°C° 0 mm 2 mps 746 mmHg 82%
    22:00 +7°C° 0 mm 2 mps 746 mmHg 82%
    23:00 +7°C° 0 mm 2 mps 746 mmHg 82%
    Show more